Location: Newark
(44.9486°N, 4.8961°E)
Time: 01:13:06
(UTC+00:00)

ISS - Pass Details

Date: 27 July 2019
Orbit: 410 x 420 km, 51.6° (Epoch: 21 August)

Event Time Altitude Azimuth Distance (km) Brightness Sun altitude
Rises 19:49:18 0° 287° (WNW) 2,373 1.8 -6.2°
Reaches altitude 10° 19:51:39 10° 301° (WNW) 1,507 0.9 -6.6°
Maximum altitude 19:54:31 25° 359° (N) 894 -1.6 -7.0°
Drops below altitude 10° 19:57:23 10° 57° (ENE) 1,503 -1.1 -7.4°
Enters shadow 20:00:07 -1° 73° (ENE) 2,522 -0.1 -7.8°
